GW7344 Weather Reports


time (UTC)temp
C
wind
direction
speed
KPH
gust
KPH
rain 1hr
cm
rain 24hr
cm
rain mn
cm
humidity
%
barometer
mb
20260504130746 12 32 1.6 6.4 0.03 0.33 0.00 51 1009.8
20260504130237 12 329 1.6 6.4 0.03 0.33 0.00 51 1010.1
20260504110532 8 360 0.0 0.0 0.00 0.30 0.00 65 1010.4
20260504100339 7 360 0.0 0.0 0.00 0.30 0.00 65 1010.4
20260504081608 7 180 0.0 0.0 0.00 0.30 0.00 64 1010.8
20260504081101 7 180 0.0 0.0 0.00 0.30 0.00 64 1010.8
20260504080558 7 180 0.0 0.0 0.00 0.30 0.00 65 1010.8
20260504070352 7 180 0.0 0.0 0.00 0.30 0.00 66 1010.8
20260504060217 7 180 0.0 0.0 0.00 0.30 0.00 66 1011.1
20260504050547 6 180 0.0 0.0 0.15 0.30 0.00 64 1011.5
20260504045544 6 180 0.0 0.0 0.20 0.30 0.00 67 1011.5
20260504045039 5 180 0.0 0.0 0.23 0.30 0.00 64 1011.5
20260504044536 5 180 0.0 0.0 0.23 0.30 0.00 65 1011.1
20260504044027 5 180 0.0 0.0 0.23 0.30 0.00 63 1011.5
20260504043527 5 180 0.0 0.0 0.23 0.30 0.00 63 1011.5
20260504043007 5 180 0.0 0.0 0.23 0.30 0.00 65 1011.5
20260504042504 5 180 0.0 0.0 0.18 0.23 0.00 62 1011.1
20260504042001 5 180 0.0 0.0 0.20 0.23 0.00 61 1011.5
20260504041451 5 180 0.0 0.0 0.13 0.15 0.00 63 1011.1
20260504040932 5 180 0.0 0.0 0.10 0.13 0.00 61 1011.1
20260504040418 5 180 0.0 0.0 0.08 0.10 0.00 61 1011.1
20260504035911 5 180 0.0 0.0 0.05 0.08 0.00 62 1011.1
20260504035400 6 180 0.0 0.0 0.05 0.08 0.00 60 1011.1
20260504034859 6 180 0.0 0.0 0.03 0.05 0.00 59 1011.1
20260504034349 6 180 0.0 0.0 0.03 0.05 0.00 60 1011.1
20260504033832 6 180 0.0 0.0 0.03 0.05 0.00 59 1011.1
20260504033314 6 180 0.0 0.0 0.03 0.05 0.00 58 1011.1
20260504032812 6 180 0.0 0.0 0.03 0.05 0.00 58 1011.1
20260504032259 6 180 0.0 0.0 0.03 0.05 0.00 57 1011.1
20260504031754 6 180 0.0 0.0 0.00 0.03 0.00 59 1011.1
20260504031247 6 180 0.0 0.0 0.00 0.03 0.00 58 1011.1
20260504030739 6 180 0.0 0.0 0.00 0.03 0.00 57 1011.1
20260504030226 6 180 0.0 0.0 0.00 0.03 0.00 55 1011.1
20260504025721 7 180 0.0 0.0 0.00 0.03 0.00 56 1011.1
20260504025211 7 180 0.0 0.0 0.00 0.03 0.00 56 1011.1
20260504024637 7 180 0.0 0.0 0.00 0.03 0.00 53 1011.1
20260504024133 7 180 0.0 0.0 0.00 0.03 0.00 53 1011.1
20260504023631 7 180 0.0 0.0 0.00 0.03 0.00 54 1011.1
20260504023111 7 180 0.0 0.0 0.00 0.03 0.00 53 1011.1
20260504022610 7 180 0.0 0.0 0.00 0.03 0.00 51 1011.1
20260504022102 7 180 0.0 0.0 0.00 0.03 0.00 52 1010.8
20260504021544 7 180 0.0 0.0 0.00 0.03 0.00 51 1010.8
20260504021036 8 180 0.0 0.0 0.00 0.03 0.00 50 1010.8
20260504020521 8 180 0.0 0.0 0.00 0.03 0.00 49 1010.8
20260504020007 8 180 0.0 0.0 0.00 0.03 0.00 49 1010.8
20260504015456 8 180 0.0 0.0 0.00 0.03 0.00 49 1010.4
20260504014955 8 180 0.0 0.0 0.00 0.03 0.00 51 1010.4
20260504014454 8 180 0.0 0.0 0.00 0.03 0.00 49 1010.4
20260504013951 8 180 0.0 0.0 0.00 0.03 0.00 46 1010.4
20260504013449 8 180 0.0 0.0 0.00 0.03 0.00 45 1010.4
20260504012944 9 180 0.0 0.0 0.00 0.03 0.00 44 1010.4
20260504012438 9 180 0.0 0.0 0.00 0.03 0.00 43 1010.1
20260504011921 9 180 0.0 0.0 0.00 0.03 0.00 42 1010.1
20260504011415 10 180 0.0 0.0 0.00 0.03 0.00 42 1010.1
20260504010911 10 180 0.0 0.0 0.00 0.03 0.00 41 1010.1
20260504010359 10 180 0.0 0.0 0.00 0.03 0.00 42 100.9
20260504005842 10 180 0.0 0.0 0.00 0.03 0.00 40 1010.1
20260504005329 10 180 0.0 0.0 0.00 0.03 0.00 38 1010.1
20260504004827 10 180 0.0 0.0 0.00 0.03 0.00 38 1010.1
20260504004322 10 180 0.0 0.0 0.00 0.03 0.00 37 1010.1
20260504003818 11 180 0.0 0.0 0.00 0.03 0.00 36 1010.1
20260504003307 11 180 0.0 0.0 0.00 0.03 0.00 35 1009.8
20260504002805 11 180 0.0 0.0 0.00 0.03 0.00 35 1010.1
20260504002301 11 180 0.0 0.0 0.00 0.03 0.00 34 1009.8
20260504001800 11 180 0.0 0.0 0.00 0.03 0.00 33 1009.8
20260504001252 12 180 0.0 0.0 0.00 0.03 0.00 32 1009.8
20260504000746 12 180 0.0 0.0 0.00 0.03 0.00 32 1010.1
20260504000234 12 180 0.0 0.0 0.00 0.03 0.00 31 1010.1
20260503235711 12 180 0.0 0.0 0.00 0.03 0.00 31 1009.8
20260503235200 13 180 0.0 0.0 0.00 0.03 0.00 30 1009.8
20260503234651 13 180 0.0 0.0 0.00 0.03 0.00 30 1009.8
20260503234142 13 180 0.0 0.0 0.00 0.03 0.00 30 1009.8
20260503233635 13 180 0.0 0.0 0.00 0.03 0.00 29 1009.8
20260503233131 14 180 0.0 0.0 0.00 0.03 0.00 28 1009.8
20260503232626 14 180 0.0 0.0 0.00 0.03 0.00 27 1009.8
20260503232124 14 180 0.0 1.6 0.00 0.03 0.00 27 1009.8
20260503231614 15 180 0.0 3.2 0.00 0.03 0.00 27 1009.4
20260503231058 15 137 0.0 1.6 0.00 0.03 0.00 27 1009.4
20260503230547 15 180 0.0 0.0 0.00 0.03 0.00 27 1009.4
20260503230046 15 180 0.0 1.6 0.00 0.03 0.00 26 1009.4
20260503225534 15 223 1.6 3.2 0.00 0.03 0.00 25 1009.4
20260503225021 15 226 3.2 6.4 0.00 0.03 0.00 24 1009.4
20260503224511 15 180 3.2 6.4 0.03 0.03 0.00 24 1009.4
20260503223956 15 180 1.6 3.2 0.03 0.03 0.00 26 1009.4
20260503223450 15 315 0.0 3.2 0.03 0.03 0.00 26 1009.4
20260503222945 15 180 0.0 3.2 0.03 0.03 0.00 26 1009.4
20260503222439 15 135 1.6 6.4 0.03 0.03 0.00 24 1009.4
20260503221818 16 170 0.0 1.6 0.03 0.03 0.00 26 1009.4
20260503221001 16 180 1.6 3.2 0.03 0.03 0.00 25 1009.4
20260503220650 16 180 0.0 6.4 0.03 0.03 0.00 24 1009.4
20260503220145 16 135 0.0 1.6 0.03 0.03 0.00 25 1009.8
20260503215720 16 273 0.0 1.6 0.03 0.03 0.00 25 1009.8
20260503215156 16 21 0.0 1.6 0.00 0.00 0.00 25 1009.8
20260503214412 16 140 1.6 6.4 0.00 0.00 0.00 24 1009.4
20260503213906 16 186 0.0 1.6 0.00 0.00 0.00 25 1009.8
20260503213355 16 135 0.0 1.6 0.00 0.00 0.00 24 1009.4
20260503212852 16 176 4.8 11.3 0.00 0.00 0.00 23 1009.8
20260503212344 16 180 1.6 12.9 0.00 0.00 0.00 23 1009.8
20260503211819 16 182 3.2 8.0 0.00 0.00 0.00 24 100.9
20260503211310 16 157 3.2 3.2 0.00 0.00 0.00 23 1009.8
20260503210754 16 180 3.2 8.0 0.00 0.00 0.00 24 1009.8
20260503210253 17 187 3.2 6.4 0.00 0.00 0.00 22 1009.8
20260503205745 17 186 3.2 6.4 0.00 0.00 0.00 23 1009.8
20260503205237 17 163 1.6 3.2 0.00 0.00 0.00 24 1009.8
20260503204731 17 180 1.6 6.4 0.00 0.00 0.00 26 1009.8
20260503204221 17 270 0.0 1.6 0.00 0.00 0.00 24 1009.8
20260503203713 17 177 3.2 6.4 0.00 0.00 0.00 25 1009.8
20260503203150 17 130 3.2 3.2 0.00 0.00 0.00 23 1010.1
20260503202645 17 186 6.4 8.0 0.00 0.00 0.00 22 1010.1
20260503202133 17 225 8.0 17.7 0.00 0.00 0.00 23 1009.8
20260503201607 17 203 1.6 8.0 0.00 0.00 0.00 24 1010.1
20260503201103 17 199 0.0 3.2 0.00 0.00 0.00 24 1010.1
20260503200539 17 112 0.0 6.4 0.00 0.00 0.00 24 1010.1
20260503200035 17 177 1.6 3.2 0.00 0.00 0.00 25 1010.1
20260503195533 18 175 6.4 8.0 0.00 0.00 0.00 25 100.9
20260503195014 18 106 0.0 6.4 0.00 0.00 0.00 26 1010.4
20260503194511 18 191 0.0 6.4 0.00 0.00 0.00 25 1010.8
20260503194003 18 135 0.0 6.4 0.00 0.00 0.00 24 1010.4
20260503193503 18 269 1.6 3.2 0.00 0.00 0.00 26 1010.8
20260503193000 18 150 3.2 6.4 0.00 0.00 0.00 25 1010.8
20260503192410 17 225 1.6 6.4 0.00 0.00 0.00 25 1010.8
20260503191853 17 186 4.8 11.3 0.00 0.00 0.00 23 101.2
20260503191348 18 178 4.8 8.0 0.00 0.00 0.00 23 1010.8
20260503190843 18 150 3.2 6.4 0.00 0.00 0.00 24 1011.1
20260503190332 18 140 1.6 3.2 0.00 0.00 0.00 23 1011.1
20260503185830 18 174 3.2 3.2 0.00 0.00 0.00 24 1011.1
20260503185329 18 225 0.0 6.4 0.00 0.00 0.00 25 1011.5
20260503184821 19 251 3.2 8.0 0.00 0.00 0.00 24 1011.5
20260503184306 18 202 1.6 6.4 0.00 0.00 0.00 24 1011.5
20260503183804 18 174 1.6 3.2 0.00 0.00 0.00 26 1011.5
20260503183246 18 187 1.6 11.3 0.00 0.00 0.00 29 1011.5
20260503182744 18 169 6.4 8.0 0.00 0.00 0.00 25 1011.5
20260503182232 18 218 3.2 8.0 0.00 0.00 0.00 25 1011.5
20260503181700 18 166 6.4 8.0 0.00 0.00 0.00 27 1011.5
20260503181145 17 146 1.6 1.6 0.00 0.00 0.00 25 1011.8
20260503180642 17 176 3.2 8.0 0.00 0.00 0.00 25 1011.5
20260503180135 18 176 1.6 3.2 0.00 0.00 0.00 28 1011.5
20260503175631 17 198 4.8 8.0 0.00 0.00 0.00 24 1011.8
20260503175123 18 178 3.2 16.1 0.00 0.00 0.00 27 1011.5
20260503174619 18 135 1.6 11.3 0.00 0.00 0.00 27 1011.8
20260503174055 18 153 3.2 12.9 0.00 0.00 0.00 25 1011.8
20260503173532 17 242 1.6 8.0 0.00 0.00 0.00 29 1012.1
20260503173018 17 189 4.8 11.3 0.00 0.00 0.00 27 1011.8
20260503172514 17 177 4.8 8.0 0.00 0.00 0.00 25 1011.8
20260503172000 17 220 0.0 0.0 0.00 0.00 0.00 27 1011.8
20260503171438 16 58 0.0 11.3 0.00 0.36 0.00 29 1011.8
20260503170919 16 180 3.2 6.4 0.00 0.36 0.00 29 1012.1
20260503170403 16 180 0.0 1.6 0.00 0.36 0.00 29 1012.1
20260503160202 15 191 1.6 8.0 0.00 0.36 0.00 27 1012.8
20260503150921 14 131 4.8 6.4 0.03 0.36 0.00 36 1013.2
20260503150407 13 124 3.2 8.0 0.03 0.36 0.00 30 1013.2